Regional Weather Roundup
Issued by NWS Portland, ME

Current Version | Previous Version | Graphics & Text | Print | Product List | Glossary On
Versions: 1 2 3 4 5 6 7 8 9 10 11 12 13 14 15 16 17 18 19 20 21 22 23 24 25 26 27 28 29 30 31 32 33 34 35 36 37 38 39 40 41 42 43 44 45 46 47 48 49 50
838
ASUS41 KGYX 271810
RWRGYX
WEATHER ROUNDUP FOR MAINE AND NEW HAMPSHIRE
NATIONAL WEATHER SERVICE GRAY ME
200 PM EDT MON MAR 27 2017

MEZ002-005-006-010-012-015-018-020-021-024-026-027-029-271900-
MAINE

CITY           SKY/WX    TMP DP  RH WIND       PRES   REMARKS
PORTLAND       RAIN      36  35  96 E13       30.14F FOG
6HR MIN TEMP:  34; 6HR MAX TEMP:  36; 6HR PCP:  0.65;

SANFORD        LGT RAIN  37  36  96 NE10      30.12F FOG
BAR HARBOR     MIX PCPN  32  28  85 SE12G22   30.25F
WISCASSET      LGT RAIN  36  33  89 E9G18     30.18F
6HR MIN TEMP:  33; 6HR MAX TEMP:  36; 6HR PCP:  0.16;

ROCKLAND       LGT RAIN  34  31  88 E15G25    30.19F
FRYEBURG       MIX PCPN  34  32  92 N6        30.16F FOG
6HR MIN TEMP:  32; 6HR MAX TEMP:  34; 6HR PCP:  0.37;

LEWISTONAUBURN LGT RAIN  34  33  96 NE6       30.16F
AUGUSTA        LGT SNOW  32  29  88 E5        30.18F FOG
6HR MIN TEMP:  30; 6HR MAX TEMP:  32; 6HR PCP:  0.27;

WATERVILLE     LGT SNOW  34  30  86 CALM      30.15F VSB 1
BANGOR         LGTSLEET  31  28  89 SE9       30.24F
6HR MIN TEMP:  29; 6HR MAX TEMP:  31; 6HR PCP:  0.31;

GREENVILLE       N/A     26  26 100 VRB7G20   30.11F
6HR MIN TEMP:  24; 6HR MAX TEMP:  26; 6HR PCP:  0.23;

MILLINOCKET    LGT SNOW  29  28  96 SE8       30.24F FOG
6HR MIN TEMP:  26; 6HR MAX TEMP:  30; 6HR PCP:  0.14;

HOULTON        LGT SNOW  27  23  85 E9        30.25F FOG
6HR MIN TEMP:  24; 6HR MAX TEMP:  27; 6HR PCP:  0.03;

PRESQUE ISLE   LGT SNOW  25  22  88 SE10      30.25F FOG     WCI  15
6HR MIN TEMP:  21; 6HR MAX TEMP:  25; 6HR PCP: TRACE;

FRENCHVILLE    SNOW      22  17  81 E13       30.21F VSB 1/2 WCI  10
6HR MIN TEMP:  20; 6HR MAX TEMP:  22; 6HR PCP:  0.03;

CARIBOU        LGT SNOW  25  19  78 SE13      30.24F WCI  14
6HR MIN TEMP:  22; 6HR MAX TEMP:  25; 6HR PCP:  0.08;

$$

NHZ002-005-008-009-011-012-014-271900-
NEW HAMPSHIRE

CITY           SKY/WX    TMP DP  RH WIND       PRES   REMARKS
PORTSMOUTH     LGT RAIN  39  38  96 NE13      30.08F FOG
ROCHESTER      LGT RAIN  38  35  89 NE8       30.09F FOG
6HR MIN TEMP:  35; 6HR MAX TEMP:  38; 6HR PCP:  0.63;

NASHUA         LGT RAIN  39  38  96 NW5       30.08F FOG
MANCHESTER     LGT RAIN  39  36  89 N6        30.07F FOG
6HR MIN TEMP:  34; 6HR MAX TEMP:  39; 6HR PCP:  0.47;

CONCORD        LGT RAIN  37  35  92 N6        30.10F
6HR MIN TEMP:  34; 6HR MAX TEMP:  37; 6HR PCP:  0.77;

LACONIA        LGT RAIN  35  33  92 NE8       30.11F FOG
PLYMOUTH       RAIN      35  34  94 CALM      30.11F
BERLIN         LGT RAIN  35  28  75 S10       30.06F
6HR MIN TEMP:  33; 6HR MAX TEMP:  35; 6HR PCP:  0.10;

WHITEFIELD     LGT RAIN  40  31  70 MISG      30.02F
6HR MIN TEMP:  34; 6HR MAX TEMP:  40; 6HR PCP:  0.15;

JAFFREY        CLOUDY    35  34  96 N7        30.06F FOG
6HR MIN TEMP:  33; 6HR MAX TEMP:  35; 6HR PCP:  0.53;

KEENE          CLOUDY    39  37  92 NE6       30.07F FOG
LEBANON        CLOUDY    37  36  96 W5        30.07F
6HR MIN TEMP:  34; 6HR MAX TEMP:  37; 6HR PCP:  0.23;

MT WASHINGTON  LGTSLEET  28  28 100 SW32G39     N/A  VSB 1/16WCI  12
6HR MIN TEMP:  22; 6HR MAX TEMP:  29; 6HR PCP:  0.10;

$$

VTZ005-007-008-271900-
VERMONT

CITY           SKY/WX    TMP DP  RH WIND       PRES   REMARKS
ST JOHNSBURY     N/A     36  35  96 MISG      30.04F
MONTPELIER     CLOUDY    34  33  96 S8        30.06F
BURLINGTON     CLOUDY    39  36  89 S12       29.99F
$$

MAZ007-012-024-CTZ003-RIZ002-NYZ038-NYZ072-271900-
SOUTHERN NEW ENGLAND AND NY

CITY           SKY/WX    TMP DP  RH WIND       PRES   REMARKS
BOSTON         RAIN      42  41  96 N7        30.06F FOG
WORCESTER      MIX PCPN  36  34  92 N8        30.04F VSB 1
NANTUCKET      FOG       45  42  89 SE13G23   30.07F VSB 1
PROVIDENCE     RAIN      45  43  93 S3        30.04F FOG
HARTFORD       CLOUDY    38  37  97 N6        30.07S FOG
ALBANY         CLOUDY    43  37  79 S7        30.02F
NEW YORK CITY  CLOUDY    46  42  86 NE7       30.04F
$$

ANZ081-ANZ082-ANZ150-NHZ014-MEZ023>029-271900-
COASTAL MARINE OBSERVATIONS

STATION/POSITION TIME  TEMP    WIND        PRES    WAVE
                       AIR SEA DIR/SP/G            HT/PER
                 (UTC) (F)     (DEG/KT/KT) (MB)    (FT/S)
MOUNT DESERT ROC 1800   35                 1023.2F
MATINICUS ROCK   1700   36     100/ 28/ 30 1022.2F
ISLE OF SHOALS   1700   39      70/ 18/ 20 1019.0F
JEFFREYS LEDGE   1706      41                N/A     8/ 7
CASHES LEDGE BUO 1750   38 40              1021.5R   6/ 6
GEORGES BANK BUO 1750   45 41              1021.8F   5/ 5
$$

.............KEY..............
   WCI - WIND CHILL
   TC  - TEMPERATURE IN CELSIUS
   VSB - VISIBILITY IN MILES
   HX  - HEAT INDEX
   FAIR- INDICATES FEW OR NO CLOUDS BELOW 12,000 FT, WITH NO
         SIGNIFICANT WEATHER AND/OR OBSTRUCTIONS TO VISIBILITY.






USA.gov is the U.S. government's official web portal to all federal, state and local government web resources and services.